Regional Weather Roundup
Issued by NWS Goodland, KS

Home | Current Version | Previous Version | Graphics & Text | Print | Product List | Glossary On
Versions: 1 2 3 4 5 6 7 8 9 10 11 12 13 14 15 16 17 18 19 20 21 22 23 24 25 26 27 28 29 30 31 32 33 34 35 36 37 38 39 40 41 42 43 44 45 46 47 48 49 50
000
ASUS43 KGLD 190908
RWRGLD

GOODLAND FORECAST AREA HOURLY WEATHER ROUNDUP
NATIONAL WEATHER SERVICE GOODLAND KS
300 AM MDT SAT APR 19 2014

...OFFICIAL OBSERVATIONS...

CITY           SKY/WX    TMP DP  RH WIND       PRES   REMARKS
GOODLAND KS    PTCLDY    51  44  77 S21       29.86F
HILL CITY KS   MOCLDY    55  46  71 S18G25    29.93F
IMPERIAL NEB   MOCLDY    53  43  68 SE8       29.84F
MCCOOK NEB     MOCLDY    54  45  71 S9        29.88F
AKRON CO       CLOUDY    55  37  50 W15       29.85S
BURLINGTON CO  MOCLDY    50  41  71 S12       29.86F
LIMON CO       CLOUDY    39  35  86 N3        29.92R
$$

...UNOFFICIAL OBSERVATIONS...

CITY           SKY/WX    TMP DP  RH WIND       PRES   REMARKS
COLBY KS       CLEAR     54  48  82 S17G25    29.88F
LENORA KS        N/A     53  32  45 S20         N/A
LEOTI KS         N/A     52  32  46 S14         N/A
NORTON KS      CLEAR     52  43  71 S12G21    29.90S
OBERLIN KS     FAIR      52  45  76 S16       29.88F
SHARON SPRINGS   N/A     51  44  78 S17         N/A
ST FRANCIS KS  PTCLDY    52  43  71 S14       29.83
WAKEENEY KS      N/A     55  44  67 MISG        N/A
KIT CARSON CO    N/A     49  40  70 MISG        N/A
WRAY CO        CLOUDY    54  43  66 S5        29.83F
$$



USA.gov is the U.S. government's official web portal to all federal, state and local government web resources and services.